Regional Weather Roundup
Issued by NWS

Home | Current Version | Previous Version | Text Only | Print | Product List | Glossary On
Versions: 1 2 3 4 5 6 7 8 9 10 11 12 13 14 15 16 17 18 19 20 21 22 23 24 25 26 27 28 29 30 31 32 33 34 35 36 37 38 39 40 41 42 43 44 45 46 47 48 49 50
000
ASUS43 KFSD 260002
RWRSD

WEATHER ROUNDUP FOR SOUTH DAKOTA
NATIONAL WEATHER SERVICE SIOUX FALLS SD
700 PM CDT MON SEP 25 2017

NOTE: "FAIR" INDICATES FEW OR NO CLOUDS BELOW 12,000 FEET WITH NO
SIGNIFICANT WEATHER AND/OR OBSTRUCTIONS TO VISIBILITY.


SDZ001>005-009-010-012>017-260100-
NORTHWEST AND NORTH CENTRAL SOUTH DAKOTA

CITY           SKY/WX    TMP DP  RH WIND       PRES   REMARKS
FAITH            N/A     52  41  66 NE8       30.09F
MOBRIDGE       CLOUDY    53  45  74 NE3       30.09S
$$

SDZ012>016-024>037-041>051-057-063-072>074-260100-
SOUTHWEST AND SOUTH CENTRAL SOUTH DAKOTA

CITY           SKY/WX    TMP DP  RH WIND       PRES   REMARKS
RAPID CTY ARPT NOT AVBL
PIERRE         CLOUDY    52  44  74 N9        30.07F
CUSTER         CLOUDY    45  36  70 SW3       30.09S
ELLSWORTH AFB  CLOUDY    51  43  73 E6        30.08
PHILIP         CLOUDY    54  43  66 N9        30.09F
PINE RIDGE     CLOUDY    52  43  71 CALM      30.09F
SPEARFISH      MOCLDY    46  46 100 SE6       30.10S
WINNER         CLOUDY    52  47  83 N7        30.08F
$$

SDZ004>011-016>023-039-040-260100-
NORTHEAST SOUTH DAKOTA

CITY           SKY/WX    TMP DP  RH WIND       PRES   REMARKS
ABERDEEN       CLOUDY    51  45  79 N14       30.07F
WATERTOWN      CLOUDY    50  48  93 N16       30.04R
BROOKINGS      RAIN      51  49  92 N12       30.03R FOG
SISSETON         N/A     51  48  89 N12       30.06F
$$

SDZ017-020-022-023-036>040-048>070-260100-
SOUTHEAST SOUTH DAKOTA

CITY           SKY/WX    TMP DP  RH WIND       PRES   REMARKS
SIOUX FALLS    DRIZZLE   54  53  97 N7        30.01R FOG
HURON          CLOUDY    52  48  86 N9        30.04F
CHAMBERLAIN    CLOUDY    54  49  83 N7        30.07S
MITCHELL       LGT RAIN  52  51  97 N9        30.03F
YANKTON        LGT RAIN  53  52  96 N9        30.02S FOG
$$

ABBREVIATIONS USED IN REMARKS
   TC - TEMPERATURE IN CELSIUS
  WCI - WIND CHILL INDEX
   HX - HEAT INDEX
  VSB - VISIBILITY





USA.gov is the U.S. government's official web portal to all federal, state and local government web resources and services.